[[{"header":{"parameterUnit":"m.s-1","parameterCategory":2,"la1":30.2992,"la2":30.254,"lo1":-89.0895,"lo2":-89.0443,"dy":0.0025,"dx":0.0025,"nx":19,"ny":19,"refTime":"2026-03-14T03:00:00:Z","depth":"0","parameterNumber":2,"parameterNumberName":"U-component_of_CURRENTS"},"data":[0,0,0,0.1812,0.1813,0.187,0.187,0.1941,0.1942,0,0,0,0,0,0,0,0,0,0,0,0.1786,0.1786,0.1812,0.1813,0.187,0.187,0.1941,0.1942,0,0,0,0,0,0,0,0,0,0,0,0.1786,0.1786,0.1787,0.1813,0.187,0.187,0.1941,0.1897,0,0,0,0,0,0,0,0,0,0,0.1842,0.1812,0.1786,0.1787,0.1814,0.187,0.187,0.1895,0.19,0.1917,0,0.1926,0,0.1941,0.1947,0.1947,0,0,0,0.1808,0.1807,0.1834,0.1787,0.1814,0.187,0.1843,0.1898,0.1903,0.1923,0.1927,0.193,0.1943,0.1948,0.1948,0.2049,0.2049,0,0,0.1805,0.1787,0.183,0.1837,0.1831,0.1841,0.1845,0.1901,0.1901,0.1928,0.1932,0.1944,0.1948,0.1949,0.2048,0.2049,0,0,0,0.1799,0.1784,0.1809,0.1834,0.1848,0.1843,0.1847,0.1898,0.191,0.1933,0.1945,0.1949,0.195,0.2047,0.2048,0.2074,0,0,0,0.1797,0.1782,0.1807,0.1796,0.1847,0.1872,0.1843,0.1905,0.1913,0.1944,0.1949,0.195,0.2047,0.2048,0.2072,0.2078,0,0,0,0.1783,0.178,0.179,0.1795,0.1824,0.1872,0.1886,0.1907,0.192,0.1948,0.1951,0.2046,0.2048,0.207,0.2076,0.2138,0,0,0,0.1759,0.1771,0.1789,0.1811,0.1823,0.1878,0.1886,0.1921,0.1945,0.1949,0.2047,0.2048,0.207,0.2074,0.2136,0.2171,0.2185,0,0,0.1761,0.177,0.1786,0.1805,0.1852,0.187,0.1929,0.1958,0.1971,0.2026,0.2028,0.2073,0.2076,0.2138,0.2243,0.2254,0,0,0,0.178,0.1789,0.1807,0.184,0.1884,0.1931,0.1965,0.1994,0.2048,0.1993,0.2091,0.2092,0.213,0.2148,0.2157,0.2211,0.2054,0.2054,0.2054,0.1747,0.1786,0.1815,0.1867,0.1909,0.1979,0.2025,0.2074,0.2079,0.2113,0.2127,0.2208,0.2227,0.2234,0.2289,0.2145,0.2145,0.2145,0.2146,0.1751,0.1765,0.1823,0.1862,0.1928,0.1981,0.2089,0.2114,0.2206,0.218,0.2216,0.219,0.2246,0.2301,0.2147,0.2147,0.2147,0.2147,0.2147,0.1719,0.173,0.1761,0.1825,0.1891,0.1979,0.2078,0.216,0.2225,0.2265,0.2309,0.2309,0.2347,0.2294,0.2294,0.2295,0.2295,0.2295,0.2295,0.1664,0.1699,0.1714,0.1786,0.1819,0.1919,0.2074,0.2162,0.2298,0.2346,0.2347,0.2391,0.2254,0.2236,0.23,0.2299,0.2299,0.2298,0.2298,0.1614,0.1626,0.165,0.1675,0.1766,0.183,0.2002,0.2211,0.2332,0.2404,0.252,0.2405,0.2406,0.2398,0.2385,0.2483,0.2483,0.2483,0.2483,0.1561,0.1578,0.1585,0.161,0.168,0.1785,0.1909,0.2128,0.2427,0.2563,0.2627,0.26,0.259,0.26,0.2588,0.2577,0.2722,0.2723,0.2723,0.1522,0.1537,0.1519,0.1556,0.1621,0.1721,0.1803,0.2012,0.2479,0.2737,0.27,0.269,0.265,0.263,0.2639,0.2617,0.2598,0,0]},{"header":{"parameterUnit":"m.s-1","parameterCategory":2,"la1":30.2992,"la2":30.254,"lo1":-89.0895,"lo2":-89.0443,"dy":0.0025,"dx":0.0025,"nx":19,"ny":19,"refTime":"2026-03-14T03:00:00:Z","depth":"0","parameterNumber":3,"parameterNumberName":"V-component_of_CURRENTS"},"data":[0,0,0,0.0059,0.0058,0.001,0.001,-0.0085,-0.0086,0,0,0,0,0,0,0,0,0,0,0,0.0075,0.0075,0.0059,0.0058,0.001,0.001,-0.0085,-0.0086,0,0,0,0,0,0,0,0,0,0,0,0.0075,0.0075,0.0075,0.0058,0.001,0.001,-0.0084,-0.0043,0,0,0,0,0,0,0,0,0,0,0.0007,0.0035,0.0075,0.0075,0.0058,0.001,0.001,-0.0041,-0.0045,-0.0069,0,-0.0068,0,-0.0075,-0.0092,-0.0092,0,0,0,0.0046,0.0039,0.0024,0.0075,0.0058,0.001,0.0028,-0.0043,-0.0049,-0.0075,-0.0069,-0.0073,-0.0076,-0.0092,-0.0093,-0.013,-0.013,0,0,0.0049,0.0064,0.0028,0.0021,0.0055,0.003,0.0027,-0.0046,-0.0048,-0.007,-0.0075,-0.0078,-0.0093,-0.0093,-0.013,-0.013,0,0,0,0.0065,0.0066,0.0053,0.0025,0.0021,0.0029,0.0025,-0.0045,-0.0049,-0.0076,-0.0079,-0.0093,-0.0094,-0.013,-0.013,-0.0033,0,0,0,0.0066,0.0075,0.0055,0.0062,0.0023,-0.0007,0.0029,-0.0044,-0.0052,-0.0078,-0.0093,-0.0095,-0.0131,-0.013,-0.0037,0.0022,0,0,0,0.0076,0.0076,0.0074,0.0063,0.0048,-0.0005,-0.0014,-0.0046,-0.0054,-0.0092,-0.0095,-0.0131,-0.013,-0.0039,0.0016,0.0065,0,0,0,0.0087,0.0108,0.0074,0.0095,0.0048,0.0047,-0.0014,-0.0028,-0.0053,-0.0094,-0.0131,-0.013,-0.004,0.0012,0.0061,0.015,0.0174,0,0,0.0125,0.0113,0.0127,0.0095,0.0117,0.0052,0.0068,0.0005,-0.0055,-0.0112,-0.0113,-0.0035,0.0015,0.0064,0.0185,0.0209,0,0,0,0.0146,0.016,0.0159,0.0161,0.0139,0.0131,0.0067,0.0035,-0.0013,-0.0065,-0.005,-0.0021,0.0007,0.0051,0.007,-0.0028,-0.0127,-0.0127,-0.0127,0.0216,0.0206,0.0239,0.0228,0.0223,0.018,0.0169,0.011,0.0039,0.0033,0.0046,0.0136,0.0184,0.0199,0.0097,0.0024,0.0024,0.0024,0.0025,0.029,0.0314,0.0304,0.0329,0.0309,0.0309,0.0258,0.0214,0.0194,0.0118,0.014,0.0137,0.0225,0.0109,0.0031,0.003,0.0029,0.0028,0.0028,0.0338,0.0353,0.0361,0.0401,0.0425,0.0392,0.0443,0.0376,0.0292,0.0315,0.0339,0.0337,0.0245,0.0319,0.0319,0.032,0.032,0.032,0.0321,0.0385,0.0399,0.0444,0.0478,0.0514,0.0563,0.0548,0.0554,0.0521,0.0462,0.0462,0.027,0.0226,0.0226,0.0328,0.0327,0.0326,0.0325,0.0325,0.0453,0.0451,0.0531,0.0573,0.0675,0.0798,0.0768,0.0807,0.0771,0.0783,0.0507,0.0531,0.051,0.0494,0.05,0.0667,0.0667,0.0667,0.0667,0.0498,0.0503,0.0619,0.0712,0.0833,0.0911,0.1078,0.1076,0.0862,0.0726,0.059,0.0524,0.0514,0.0486,0.0471,0.0472,0.0629,0.0628,0.0628,0.0552,0.0581,0.0678,0.0764,0.0904,0.1059,0.1241,0.1319,0.0947,0.0609,0.0438,0.044,0.0318,0.0311,0.0242,0.0228,0.022,0,0]}],[{"header":{"parameterUnit":"m.s-1","parameterCategory":2,"la1":30.2992,"la2":30.254,"lo1":-89.0895,"lo2":-89.0443,"dy":0.0025,"dx":0.0025,"nx":19,"ny":19,"refTime":"2026-03-14T03:00:00:Z","depth":"2","parameterNumber":2,"parameterNumberName":"U-component_of_CURRENTS"},"data":[0,0,0,0.169,0.1691,0.1758,0.1758,0.1827,0.1828,0,0,0,0,0,0,0,0,0,0,0,0.1663,0.1663,0.169,0.1691,0.1758,0.1758,0.1827,0.1828,0,0,0,0,0,0,0,0,0,0,0,0.1663,0.1663,0.1664,0.1692,0.1758,0.1758,0.1827,0.1779,0,0,0,0,0,0,0,0,0,0,0.1716,0.169,0.1663,0.1664,0.1692,0.1758,0.1758,0.1777,0.1782,0.1794,0,0.1807,0,0.1824,0.1832,0.1833,0,0,0,0.1686,0.1686,0.1711,0.1664,0.1693,0.1758,0.1726,0.178,0.1786,0.1801,0.1809,0.1812,0.1825,0.1833,0.1833,0.1927,0.1927,0,0,0.1683,0.1667,0.1707,0.1715,0.1715,0.1724,0.1729,0.1784,0.1787,0.1809,0.1813,0.1826,0.1833,0.1834,0.1926,0.1927,0,0,0,0.1676,0.1665,0.1689,0.1712,0.1728,0.1726,0.1731,0.1784,0.1795,0.1814,0.1827,0.1834,0.1835,0.1926,0.1926,0.1952,0,0,0,0.1673,0.1661,0.1687,0.1678,0.1727,0.1758,0.173,0.1791,0.1798,0.1826,0.1834,0.1835,0.1925,0.1926,0.195,0.1958,0,0,0,0.1659,0.166,0.167,0.1677,0.171,0.1758,0.1771,0.1792,0.1806,0.1833,0.1835,0.1925,0.1926,0.1949,0.1956,0.2008,0,0,0,0.1637,0.1651,0.167,0.1694,0.1709,0.1763,0.1771,0.1808,0.1832,0.1834,0.1925,0.1926,0.1948,0.1954,0.2006,0.2002,0.2012,0,0,0.1641,0.1651,0.1667,0.1686,0.1733,0.1753,0.181,0.1842,0.1855,0.1904,0.1906,0.1951,0.1956,0.2007,0.207,0.2078,0,0,0,0.166,0.167,0.1688,0.1721,0.1764,0.1811,0.1847,0.1875,0.1928,0.1877,0.1968,0.197,0.2002,0.1996,0.2002,0.1932,0.1932,0.1932,0.1932,0.1631,0.1667,0.1696,0.1746,0.1788,0.1857,0.1902,0.1949,0.1955,0.1989,0.2004,0.2077,0.2071,0.2076,0.202,0.202,0.2021,0.2021,0.2021,0.1634,0.1647,0.1705,0.1743,0.1807,0.1861,0.1962,0.1988,0.2074,0.2053,0.2083,0.2039,0.2084,0.2023,0.2023,0.2022,0.2022,0.2022,0.2022,0.1603,0.1614,0.1646,0.171,0.1777,0.1863,0.1956,0.2034,0.2095,0.2132,0.2144,0.2144,0.2093,0.2156,0.2156,0.2157,0.2157,0.2157,0.2157,0.1548,0.1584,0.1602,0.1675,0.1712,0.1809,0.1957,0.2036,0.2145,0.2178,0.2179,0.2123,0.2119,0.2102,0.2161,0.2161,0.216,0.216,0.2159,0.15,0.1514,0.1541,0.157,0.1664,0.1718,0.188,0.2047,0.2154,0.2202,0.2215,0.2212,0.2208,0.2202,0.2188,0.2267,0.2267,0.2267,0.2267,0.145,0.1466,0.148,0.1509,0.1576,0.1673,0.1754,0.1898,0.2079,0.2137,0.2142,0.2089,0.2089,0.2074,0.2071,0.2052,0.2095,0.2095,0.2094,0.1412,0.1429,0.1415,0.1456,0.1519,0.1605,0.1631,0.1687,0.1885,0.2081,0.2043,0.2269,0.2203,0.2198,0.2183,0.2175,0.2148,0,0]},{"header":{"parameterUnit":"m.s-1","parameterCategory":2,"la1":30.2992,"la2":30.254,"lo1":-89.0895,"lo2":-89.0443,"dy":0.0025,"dx":0.0025,"nx":19,"ny":19,"refTime":"2026-03-14T03:00:00:Z","depth":"2","parameterNumber":3,"parameterNumberName":"V-component_of_CURRENTS"},"data":[0,0,0,-0.0025,-0.0026,-0.007,-0.007,-0.0157,-0.0158,0,0,0,0,0,0,0,0,0,0,0,-0.0011,-0.0011,-0.0025,-0.0026,-0.007,-0.007,-0.0157,-0.0158,0,0,0,0,0,0,0,0,0,0,0,-0.0011,-0.0011,-0.0011,-0.0026,-0.007,-0.0071,-0.0157,-0.0119,0,0,0,0,0,0,0,0,0,0,-0.0073,-0.0048,-0.0011,-0.0011,-0.0026,-0.007,-0.0071,-0.0117,-0.0121,-0.0143,0,-0.0142,0,-0.0148,-0.0164,-0.0164,0,0,0,-0.0037,-0.0044,-0.0057,-0.0011,-0.0027,-0.007,-0.0053,-0.0119,-0.0124,-0.0149,-0.0143,-0.0146,-0.0149,-0.0164,-0.0164,-0.0192,-0.0191,0,0,-0.0034,-0.0021,-0.0054,-0.006,-0.003,-0.0052,-0.0055,-0.0122,-0.0123,-0.0144,-0.0148,-0.0151,-0.0165,-0.0165,-0.0192,-0.0192,0,0,0,-0.002,-0.0019,-0.0031,-0.0057,-0.006,-0.0053,-0.0056,-0.012,-0.0124,-0.0149,-0.0152,-0.0165,-0.0166,-0.0192,-0.0192,-0.0106,0,0,0,-0.0019,-0.001,-0.0029,-0.0022,-0.0058,-0.0085,-0.0053,-0.012,-0.0127,-0.0151,-0.0165,-0.0167,-0.0193,-0.0192,-0.0109,-0.0056,0,0,0,-0.001,-0.0009,-0.0012,-0.0021,-0.0036,-0.0084,-0.0093,-0.0122,-0.0129,-0.0164,-0.0167,-0.0193,-0.0192,-0.0112,-0.0062,-0.003,0,0,0,0.0001,0.002,-0.0011,0.0009,-0.0035,-0.0034,-0.0092,-0.0104,-0.0127,-0.0166,-0.0193,-0.0192,-0.0113,-0.0065,-0.0034,0.0016,0.0035,0,0,0.0035,0.0024,0.0037,0.0009,0.0031,-0.003,-0.0013,-0.0072,-0.0126,-0.0176,-0.0176,-0.0108,-0.0062,-0.0031,0.0059,0.0077,0,0,0,0.0055,0.0068,0.0069,0.0072,0.0053,0.0046,-0.0013,-0.0042,-0.0085,-0.0135,-0.0117,-0.0091,-0.0074,-0.0051,-0.0037,-0.0188,-0.0188,-0.0189,-0.0189,0.0118,0.0111,0.0143,0.0136,0.0132,0.0094,0.0082,0.0029,-0.0035,-0.0039,-0.0028,0.0047,0.0072,0.0084,-0.0046,-0.0045,-0.0045,-0.0045,-0.0044,0.0187,0.021,0.0204,0.0229,0.0212,0.0214,0.0166,0.0125,0.0104,0.0041,0.0052,0.003,0.0104,-0.0038,-0.0039,-0.004,-0.0041,-0.0041,-0.0041,0.0229,0.0244,0.0253,0.0294,0.0317,0.029,0.0331,0.0271,0.019,0.0207,0.0201,0.0199,0.0105,0.0203,0.0203,0.0204,0.0204,0.0204,0.0205,0.0269,0.0285,0.0327,0.0363,0.0396,0.0439,0.0425,0.0421,0.0371,0.0309,0.0309,0.0131,0.0122,0.0119,0.0211,0.0209,0.0209,0.0208,0.0208,0.0329,0.0329,0.0403,0.0442,0.0536,0.0635,0.0608,0.0609,0.0568,0.0555,0.0354,0.0349,0.0325,0.0313,0.0313,0.0449,0.0449,0.0449,0.0449,0.0366,0.0371,0.0477,0.0561,0.0668,0.0729,0.084,0.0794,0.065,0.0541,0.0537,0.0493,0.0482,0.0462,0.0446,0.0447,0.0619,0.0619,0.0619,0.0411,0.0439,0.0523,0.0603,0.0726,0.0847,0.0956,0.0923,0.0708,0.0623,0.0542,0.0465,0.0387,0.0375,0.0327,0.0309,0.0302,0,0]}],[{"header":{"parameterUnit":"m.s-1","parameterCategory":2,"la1":30.2992,"la2":30.254,"lo1":-89.0895,"lo2":-89.0443,"dy":0.0025,"dx":0.0025,"nx":19,"ny":19,"refTime":"2026-03-14T03:00:00:Z","depth":"4","parameterNumber":2,"parameterNumberName":"U-component_of_CURRENTS"},"data":[0,0,0,0.1191,0.1194,0.1328,0.1328,0.1418,0.1418,0,0,0,0,0,0,0,0,0,0,0,0.1148,0.1149,0.1191,0.1195,0.1328,0.1328,0.1417,0.1418,0,0,0,0,0,0,0,0,0,0,0,0.1148,0.1149,0.115,0.1195,0.1328,0.1328,0.1417,0.1336,0,0,0,0,0,0,0,0,0,0,0.1217,0.1191,0.1149,0.115,0.1196,0.1328,0.1328,0.1333,0.1341,0.1335,0,0.1366,0,0.1393,0.1423,0.1423,0,0,0,0.1192,0.1185,0.1219,0.115,0.1197,0.1327,0.1267,0.1338,0.1347,0.1345,0.1368,0.1372,0.1395,0.1423,0.1423,0.1499,0.1499,0,0,0.1185,0.117,0.1213,0.1225,0.1245,0.1263,0.1271,0.1345,0.1358,0.1368,0.1374,0.1396,0.1423,0.1424,0.1499,0.1499,0,0,0,0.1165,0.1165,0.12,0.1221,0.1252,0.1267,0.1276,0.1355,0.1367,0.1375,0.1397,0.1424,0.1425,0.1498,0.1499,0.1542,0,0,0,0.1161,0.1154,0.1197,0.1189,0.1251,0.1317,0.1285,0.1362,0.1371,0.1397,0.1424,0.1425,0.1498,0.1499,0.154,0.1552,0,0,0,0.114,0.1152,0.1171,0.1188,0.1247,0.1316,0.1333,0.1365,0.1384,0.1423,0.1425,0.1498,0.1498,0.1539,0.1549,0.1595,0,0,0,0.1114,0.1141,0.1171,0.1212,0.1246,0.1319,0.1333,0.1395,0.1431,0.1424,0.1498,0.1499,0.1538,0.1547,0.1593,0.1408,0,0,0,0.1126,0.1142,0.1165,0.1195,0.1257,0.1299,0.1371,0.1426,0.1438,0.1466,0.1469,0.1541,0.1549,0.1594,0.1457,0,0,0,0,0.1154,0.1171,0.1195,0.1246,0.1302,0.1365,0.1424,0.1452,0.1511,0.1465,0.1545,0.1549,0.1576,0.1462,0.1503,0.1503,0.1502,0.1502,0.1502,0.1134,0.1174,0.1215,0.1273,0.1328,0.1418,0.1472,0.1521,0.1532,0.1567,0.1588,0.1655,0.1536,0.1595,0.1596,0.1596,0.1596,0.1596,0.1596,0.1139,0.1156,0.1227,0.1282,0.1359,0.143,0.1528,0.1563,0.1647,0.163,0.1655,0.1519,0.1601,0.16,0.1599,0.1599,0.1598,0.1598,0.1598,0.1105,0.1118,0.1172,0.1258,0.1349,0.1448,0.1536,0.1621,0.1679,0.1719,0.1615,0.169,0.1683,0.1748,0.1748,0.1748,0.1749,0.1749,0.1749,0.1039,0.1091,0.1135,0.1234,0.1294,0.1402,0.1554,0.1615,0.1705,0.1642,0.1744,0.1706,0.1701,0.1692,0.1753,0.1752,0.1752,0.1752,0.1751,0.0982,0.1016,0.1069,0.1126,0.1253,0.1315,0.1481,0.1559,0.1615,0.161,0.16,0.1606,0.1575,0.1574,0.1559,0.1583,0.158,0.1578,0,0.093,0.0954,0.1013,0.1073,0.114,0.1257,0.1295,0.1394,0.1476,0.142,0.1617,0.1602,0.1606,0.1567,0.1563,0.1542,0,0,0,0.0893,0.0921,0.0938,0.1013,0.1076,0.117,0.1298,0.1288,0.1455,0.1465,0.1525,0.1539,0.1681,0.1765,0.1734,0.1728,0.1712,0,0]},{"header":{"parameterUnit":"m.s-1","parameterCategory":2,"la1":30.2992,"la2":30.254,"lo1":-89.0895,"lo2":-89.0443,"dy":0.0025,"dx":0.0025,"nx":19,"ny":19,"refTime":"2026-03-14T03:00:00:Z","depth":"4","parameterNumber":3,"parameterNumberName":"V-component_of_CURRENTS"},"data":[0,0,0,0.0001,0.0,-0.0037,-0.0037,-0.0102,-0.0102,0,0,0,0,0,0,0,0,0,0,0,0.0013,0.0013,0.0001,0.0,-0.0037,-0.0037,-0.0101,-0.0102,0,0,0,0,0,0,0,0,0,0,0,0.0013,0.0013,0.0013,0.0,-0.0037,-0.0037,-0.0101,-0.0071,0,0,0,0,0,0,0,0,0,0,-0.0034,-0.0014,0.0013,0.0013,0.0,-0.0037,-0.0037,-0.007,-0.0073,-0.0087,0,-0.0087,0,-0.0093,-0.0106,-0.0106,0,0,0,-0.0008,-0.0011,-0.0023,0.0013,-0.0,-0.0037,-0.0023,-0.0071,-0.0075,-0.0091,-0.0088,-0.0091,-0.0094,-0.0106,-0.0107,-0.0114,-0.0114,0,0,-0.0006,0.0004,-0.002,-0.0025,-0.0004,-0.0021,-0.0024,-0.0074,-0.0075,-0.0089,-0.0092,-0.0095,-0.0107,-0.0107,-0.0115,-0.0114,0,0,0,0.0006,0.0006,-0.0004,-0.0022,-0.0026,-0.0022,-0.0025,-0.0073,-0.0076,-0.0093,-0.0095,-0.0107,-0.0108,-0.0115,-0.0115,-0.0055,0,0,0,0.0006,0.0013,-0.0003,0.0003,-0.0024,-0.0046,-0.0023,-0.0073,-0.0078,-0.0095,-0.0107,-0.0108,-0.0115,-0.0115,-0.0057,-0.0019,0,0,0,0.0013,0.0014,0.0011,0.0004,-0.0009,-0.0046,-0.0052,-0.0074,-0.008,-0.0106,-0.0108,-0.0116,-0.0115,-0.006,-0.0023,-0.0011,0,0,0,0.0022,0.0035,0.0012,0.0026,-0.0008,-0.0006,-0.0052,-0.0062,-0.0079,-0.0107,-0.0115,-0.0115,-0.006,-0.0026,-0.0014,0.0012,0,0,0,0.0047,0.0038,0.0048,0.0027,0.0046,-0.0002,0.0013,-0.0034,-0.0072,-0.0103,-0.0103,-0.0057,-0.0024,-0.0012,0.006,0,0,0,0,0.0062,0.0072,0.0073,0.0076,0.0064,0.006,0.0014,-0.0008,-0.0037,-0.0077,-0.0056,-0.0037,-0.0032,-0.0024,-0.0111,-0.0111,-0.0111,-0.0111,-0.0111,0.0105,0.0103,0.0129,0.0127,0.0127,0.0099,0.0089,0.0051,0.0005,0.0003,0.0011,0.0063,0.0075,0.0003,0.0004,0.0004,0.0004,0.0004,0.0004,0.0154,0.0172,0.0175,0.0198,0.0189,0.0194,0.0158,0.0126,0.0107,0.0067,0.0068,0.0039,0.001,0.0009,0.0008,0.0008,0.0007,0.0007,0.0006,0.0182,0.0194,0.0207,0.0244,0.0268,0.0252,0.0279,0.0234,0.017,0.0177,0.016,0.0101,0.0095,0.0168,0.0168,0.0168,0.0168,0.0168,0.0169,0.0203,0.0222,0.0257,0.0293,0.0325,0.0357,0.0348,0.0335,0.0271,0.0241,0.0193,0.0118,0.0112,0.0104,0.0172,0.0172,0.0171,0.0171,0.0171,0.0236,0.0242,0.0302,0.0337,0.0417,0.0446,0.0443,0.0406,0.039,0.0348,0.0261,0.0256,0.0234,0.0225,0.022,0.0325,0.0326,0.0326,0,0.0254,0.0262,0.0343,0.0412,0.0486,0.0501,0.0514,0.0487,0.0396,0.039,0.0369,0.0273,0.0268,0.0243,0.0236,0.0231,0,0,0,0.0277,0.0301,0.0361,0.043,0.0514,0.0525,0.052,0.0498,0.0416,0.04,0.0341,0.0337,0.0264,0.0183,0.0136,0.0129,0.0113,0,0]}]]